Simultaneous Nadir Overpasses (SNOs) Predictions

Prediction of SNOs between NOAA-21 and LANDSAT-8 Satellite Orbit:

Table of predicted SNOs for the next 14.0 days since TLE Epoch: 11/16/2024
Index Date (NOAA-21) Time (NOAA-21) Lat,Lon (NOAA-21) SZA (NOAA-21 ) Date (LANDSAT-8) Time (LANDSAT-8) Lat,Lon (LANDSAT-8) SZA (LANDSAT-8 ) Distance(km) Time Diff (sec)
1 11/17/2024 21:47:56 70.19,-150.49 89.35 11/17/2024 21:48:22 70.20,-150.50 89.35 0.73 26
2 11/17/2024 22:38:38 -70.10, 16.98 90.74 11/17/2024 22:37:52 -70.09, 16.98 90.75 0.44 46
3 11/20/2024 13:14:13 -70.62, 157.29 89.62 11/20/2024 13:15:24 -70.49, 158.15 89.74 34.82 71
4 11/20/2024 14:04:50 70.15, -34.66 89.93 11/20/2024 14:04:55 70.17, -34.68 89.94 2.08 5
5 11/20/2024 14:55:32 -70.05, 132.81 90.18 11/20/2024 14:54:25 -70.07, 132.81 90.16 2.01 67
6 11/23/2024 05:30:59 -70.23, -86.32 89.44 11/23/2024 05:31:59 -70.26, -86.32 89.41 3.47 60
7 11/23/2024 06:21:43 70.13, 81.13 90.48 11/23/2024 06:21:26 70.15, 81.16 90.49 2.10 17
8 11/23/2024 07:12:15 -69.50,-110.61 90.16 11/23/2024 07:11:05 -69.55,-112.03 90.10 55.75 70
9 11/25/2024 21:47:52 -70.18, 29.53 88.96 11/25/2024 21:48:31 -70.20, 29.46 88.95 3.33 39
10 11/25/2024 22:38:36 70.09,-163.03 90.96 11/25/2024 22:37:58 70.08,-163.06 90.95 1.31 38
11 11/28/2024 13:14:14 70.85, -23.09 92.19 11/28/2024 13:15:23 70.73, -21.51 92.07 59.23 69
12 11/28/2024 14:04:46 -70.20, 145.26 88.46 11/28/2024 14:05:01 -70.19, 145.33 88.47 2.87 15
13 11/28/2024 14:55:29 70.06, -47.22 91.41 11/28/2024 14:54:28 70.08, -47.19 91.43 1.95 61



Historial Predications of SNOs between NOAA-21 and LANDSAT-8
